Date String (YYYY-MM-DD hh:mm:ss) UTC,Instrument flags,absolute air pressure of the measurement (hPa),sample flow rate (lpm),inlet stack bypass flow (lpm),air temperature of the measurement (°C),ambient temperature measured by the external sensor (°C),aerosol sample conditioner tube jacket temperature (°C),OPC LED temperature (°C),internal box temperature (°C),relative humidity of the measurement (%),span deviation,mass concentration of particles derived from Lorenz-Mie calculation of OPC scattering (μg/m³),mass concentration of particles derived from Lorenz-Mie calculation of OPC scattering (μg/m³),mass concentration of particles derived from Lorenz-Mie calculation of OPC scattering (μg/m³)
DateTimeUTC,F1_M11,P_M11,Q1_M11,Q2_M11,T1_M11,T2_M11,T3_M11,T4_M11,T5_M11,U1_M11,ZSPAN_M11,X0_M11,X2_M11,X1_M11
2023-08-19 14:00:00,SystemResetWarning,0833.9,5.01,000.00,028.3,024.5,000.0,036.5,029.7,28.6,0000.0,0004.33,0002.42,0001.79
2023-08-19 14:01:00,SystemResetWarning,0833.8,5.01,000.00,028.2,024.6,000.0,036.5,029.7,29.2,0000.0,0004.15,0002.43,0001.79
2023-08-19 14:02:00,SystemResetWarning,0833.9,5.00,000.00,028.2,024.9,000.0,036.6,029.6,29.8,0000.0,0004.18,0002.42,0001.79
2023-08-19 14:03:00,SystemResetWarning,0833.9,5.00,000.00,028.1,025.3,000.0,036.6,029.7,29.9,0000.0,0004.19,0002.46,0001.81
2023-08-19 14:04:00,SystemResetWarning,0833.8,5.00,000.00,028.1,025.7,000.0,036.6,029.7,30.4,0000.0,0004.12,0002.50,0001.84
2023-08-19 14:05:00,SystemResetWarning,0833.9,4.99,000.00,028.2,026.0,000.0,036.6,029.8,31.1,0000.0,0005.07,0002.59,0001.87
2023-08-19 14:06:00,SystemResetWarning,0833.9,5.00,000.00,028.2,026.3,000.0,036.7,029.9,30.9,0000.0,0005.22,0002.62,0001.89
2023-08-19 14:07:00,SystemResetWarning,0834.0,5.00,000.00,028.2,026.5,000.0,036.7,029.9,30.2,0000.0,0005.61,0002.61,0001.90
2023-08-19 14:08:00,SystemResetWarning,0834.0,5.00,000.00,028.3,026.7,000.0,036.7,030.0,29.2,0000.0,0005.61,0002.60,0001.93
2023-08-19 14:09:00,SystemResetWarning,0833.9,4.99,000.00,028.3,026.8,000.0,036.7,030.1,29.8,0000.0,0005.44,0002.60,0001.95
2023-08-19 14:10:00,SystemResetWarning,0833.9,4.99,000.00,028.3,025.8,000.0,036.6,029.9,30.3,0000.0,0005.58,0002.69,0001.99
2023-08-19 14:11:00,SystemResetWarning,0833.9,4.98,000.00,028.2,024.5,000.0,036.5,029.7,34.1,0000.0,0005.72,0002.73,0002.02
2023-08-19 14:12:00,SystemResetWarning,0833.9,5.04,000.00,028.3,024.5,000.0,036.4,029.6,35.2,0000.0,0005.84,0002.74,0002.04
2023-08-19 14:13:00,SystemResetWarning,0834.0,4.98,000.00,028.4,024.8,000.0,036.5,029.7,34.5,0000.0,0005.77,0002.74,0002.04
2023-08-19 14:14:00,SystemResetWarning,0833.9,5.00,000.00,028.5,025.2,000.0,036.5,029.7,34.5,0000.0,0005.63,0002.71,0002.05
2023-08-19 14:15:00,SystemResetWarning,0833.9,5.01,000.00,028.5,025.6,000.0,036.6,029.8,33.7,0000.0,0005.64,0002.66,0002.04
2023-08-19 14:16:00,SystemResetWarning,0834.0,5.00,000.00,028.6,025.9,000.0,036.6,029.9,31.3,0000.0,0004.97,0002.59,0002.02
2023-08-19 14:17:00,SystemResetWarning,0834.0,4.99,000.00,028.6,026.2,000.0,036.7,029.9,31.3,0000.0,0004.71,0002.57,0002.01
2023-08-19 14:18:00,SystemResetWarning,0834.0,5.00,000.00,028.7,026.5,000.0,036.8,030.0,32.3,0000.0,0004.17,0002.56,0001.99
2023-08-19 14:19:00,SystemResetWarning,0834.0,5.01,000.00,028.7,026.7,000.0,036.8,030.1,32.7,0000.0,0004.34,0002.59,0001.97
2023-08-19 14:20:00,SystemResetWarning,0834.0,5.00,000.00,028.8,026.9,000.0,036.9,030.1,31.5,0000.0,0004.45,0002.59,0001.94
2023-08-19 14:21:00,SystemResetWarning,0834.0,4.99,000.00,028.8,026.8,000.0,036.9,030.1,30.8,0000.0,0004.21,0002.48,0001.91
2023-08-19 14:22:00,SystemResetWarning,0834.0,4.99,000.00,028.8,025.5,000.0,036.8,029.9,31.6,0000.0,0004.08,0002.46,0001.90
2023-08-19 14:23:00,SystemResetWarning,0834.0,5.00,000.00,028.7,024.6,000.0,036.7,029.7,33.0,0000.0,0003.95,0002.44,0001.89
2023-08-19 14:24:00,SystemResetWarning,0834.0,5.00,000.00,028.7,024.7,000.0,036.7,029.7,33.0,0000.0,0004.01,0002.45,0001.89
2023-08-19 14:25:00,SystemResetWarning,0834.0,5.00,000.00,028.6,025.0,000.0,036.8,029.7,34.9,0000.0,0004.10,0002.49,0001.88
2023-08-19 14:26:00,SystemResetWarning,0834.0,5.00,000.00,028.6,025.4,000.0,036.8,029.8,34.8,0000.0,0004.37,0002.52,0001.88
2023-08-19 14:27:00,SystemResetWarning,0834.0,4.99,000.00,028.7,025.8,000.0,036.8,029.9,33.9,0000.0,0004.33,0002.52,0001.88
2023-08-19 14:28:00,SystemResetWarning,0834.0,5.00,000.00,028.8,026.1,000.0,036.9,030.0,33.2,0000.0,0004.91,0002.49,0001.89
2023-08-19 14:29:00,SystemResetWarning,0834.0,5.00,000.00,028.9,026.4,000.0,036.9,030.0,32.9,0000.0,0005.21,0002.43,0001.88
2023-08-19 14:30:00,SystemResetWarning,0834.1,5.00,000.00,028.9,026.6,000.0,037.0,030.1,34.0,0000.0,0005.04,0002.44,0001.89
2023-08-19 14:31:00,SystemResetWarning,0834.1,5.00,000.00,029.0,026.8,000.0,037.0,030.2,34.3,0000.0,0005.04,0002.48,0001.90
2023-08-19 14:32:00,SystemResetWarning,0834.1,4.99,000.00,029.0,026.3,000.0,037.0,030.1,33.5,0000.0,0005.16,0002.51,0001.90
2023-08-19 14:33:00,SystemResetWarning,0834.1,4.99,000.00,028.9,024.9,000.0,036.9,029.8,32.7,0000.0,0005.08,0002.49,0001.90
2023-08-19 14:34:00,SystemResetWarning,0834.1,5.01,000.00,028.9,024.5,000.0,036.8,029.7,32.8,0000.0,0004.99,0002.46,0001.89
2023-08-19 14:35:00,SystemResetWarning,0834.1,5.02,000.00,028.8,024.7,000.0,036.9,029.7,32.4,0000.0,0004.89,0002.44,0001.90
2023-08-19 14:36:00,SystemResetWarning,0834.1,5.00,000.00,028.7,025.1,000.0,036.9,029.7,32.3,0000.0,0004.78,0002.40,0001.90
2023-08-19 14:37:00,SystemResetWarning,0834.1,5.00,000.00,028.7,025.4,000.0,036.9,029.8,32.4,0000.0,0004.39,0002.35,0001.90
2023-08-19 14:38:00,SystemResetWarning,0834.1,5.00,000.00,028.7,025.8,000.0,037.0,029.9,32.7,0000.0,0004.38,0002.33,0001.90
2023-08-19 14:39:00,SystemResetWarning,0834.1,5.00,000.00,028.7,026.1,000.0,037.0,030.0,31.0,0000.0,0003.97,0002.30,0001.88
2023-08-19 14:40:00,SystemResetWarning,0834.1,5.00,000.00,028.7,026.4,000.0,037.0,030.0,30.8,0000.0,0004.07,0002.38,0001.92
2023-08-19 14:41:00,SystemResetWarning,0834.1,4.99,000.00,028.8,026.6,000.0,037.0,030.1,31.4,0000.0,0004.97,0002.42,0001.93
2023-08-19 14:42:00,SystemResetWarning,0834.1,4.99,000.00,028.8,025.6,000.0,036.9,029.8,31.1,0000.0,0005.24,0002.45,0001.94
2023-08-19 14:43:00,SystemResetWarning,0834.1,5.02,000.00,028.7,024.4,000.0,036.8,029.6,32.2,0000.0,0007.43,0002.46,0001.95
2023-08-19 14:44:00,SystemResetWarning,0834.1,5.00,000.00,028.6,024.4,000.0,036.8,029.6,31.7,0000.0,0008.29,0002.50,0001.96
2023-08-19 14:45:00,SystemResetWarning,0834.1,5.00,000.00,028.5,024.7,000.0,036.8,029.5,32.0,0000.0,0008.37,0002.52,0001.95
2023-08-19 14:46:00,SystemResetWarning,0834.1,5.00,000.00,028.5,025.1,000.0,036.8,029.6,33.2,0000.0,0008.44,0002.52,0001.94
2023-08-19 14:47:00,SystemResetWarning,0834.1,5.00,000.00,028.5,025.5,000.0,036.8,029.7,33.1,0000.0,0008.62,0002.52,0001.93
2023-08-19 14:48:00,SystemResetWarning,0834.1,5.00,000.00,028.5,025.8,000.0,036.8,029.8,32.4,0000.0,0008.72,0002.58,0001.94
2023-08-19 14:49:00,SystemResetWarning,0834.1,4.99,000.00,028.5,026.1,000.0,036.9,029.9,33.0,0000.0,0008.80,0002.66,0001.94
2023-08-19 14:50:00,SystemResetWarning,0834.1,5.00,000.00,028.5,026.4,000.0,036.9,029.9,32.7,0000.0,0008.68,0002.71,0001.94
2023-08-19 14:51:00,SystemResetWarning,0834.1,4.99,000.00,028.5,026.2,000.0,036.8,029.9,32.8,0000.0,0008.49,0002.69,0001.93
2023-08-19 14:52:00,SystemResetWarning,0834.1,5.00,000.00,028.5,024.9,000.0,036.7,029.6,33.5,0000.0,0007.96,0002.64,0001.92
2023-08-19 14:53:00,SystemResetWarning,0834.1,5.01,000.00,028.4,024.2,000.0,036.6,029.5,33.6,0000.0,0007.90,0002.62,0001.94
2023-08-19 14:54:00,SystemResetWarning,0834.1,5.01,000.00,028.4,024.4,000.0,036.6,029.4,33.7,0000.0,0005.89,0002.65,0001.96
2023-08-19 14:55:00,SystemResetWarning,0834.1,5.00,000.00,028.3,024.7,000.0,036.6,029.4,33.8,0000.0,0005.07,0002.75,0001.98
2023-08-19 14:56:00,SystemResetWarning,0834.1,5.00,000.00,028.3,025.1,000.0,036.6,029.5,34.0,0000.0,0005.72,0002.83,0002.00
2023-08-19 14:57:00,SystemResetWarning,0834.1,5.00,000.00,028.2,025.5,000.0,036.7,029.6,34.6,0000.0,0008.01,0002.85,0002.02
2023-08-19 14:58:00,SystemResetWarning,0834.2,5.00,000.00,028.3,025.9,000.0,036.7,029.7,34.6,0000.0,0008.68,0002.93,0002.05
2023-08-19 14:59:00,SystemResetWarning,0834.2,4.98,000.00,028.3,026.2,000.0,036.7,029.8,35.1,0000.0,0008.85,0002.99,0002.07
